TimeCST,TemperatureF,Dew PointF,Humidity,Sea Level PressureIn,VisibilityMPH,Wind Direction,Wind SpeedMPH,Gust SpeedMPH,PrecipitationIn,Events,Conditions,WindDirDegrees,DateUTC
12:15 AM,44.6,33.8,66,30.09,10.0,SSE,13.8,-,N/A,,Clear,160,2013-02-18 06:15:00
12:35 AM,44.6,33.8,66,30.09,10.0,SSE,12.7,-,N/A,,Clear,160,2013-02-18 06:35:00
12:55 AM,44.6,33.8,66,30.09,10.0,South,12.7,-,N/A,,Clear,170,2013-02-18 06:55:00
1:15 AM,44.6,33.8,66,30.10,10.0,South,12.7,-,N/A,,Clear,170,2013-02-18 07:15:00
1:35 AM,46.4,35.6,66,30.10,10.0,South,12.7,-,N/A,,Clear,170,2013-02-18 07:35:00
1:55 AM,44.6,35.6,71,30.10,10.0,South,12.7,18.4,N/A,,Clear,180,2013-02-18 07:55:00
2:35 AM,46.4,35.6,66,30.10,10.0,South,12.7,18.4,N/A,,Clear,180,2013-02-18 08:35:00
2:55 AM,44.6,35.6,71,30.10,10.0,South,11.5,-,N/A,,Clear,180,2013-02-18 08:55:00
3:15 AM,44.6,35.6,71,30.10,10.0,South,10.4,-,N/A,,Clear,180,2013-02-18 09:15:00
3:35 AM,44.6,37.4,76,30.09,10.0,South,11.5,-,N/A,,Clear,170,2013-02-18 09:35:00
4:15 AM,44.6,35.6,71,30.10,10.0,South,11.5,-,N/A,,Clear,180,2013-02-18 10:15:00
4:35 AM,44.6,35.6,71,30.10,10.0,South,10.4,-,N/A,,Clear,170,2013-02-18 10:35:00
4:55 AM,44.6,35.6,71,30.11,10.0,South,11.5,-,N/A,,Clear,170,2013-02-18 10:55:00
5:15 AM,44.6,35.6,71,30.10,10.0,South,12.7,-,N/A,,Clear,170,2013-02-18 11:15:00
5:35 AM,44.6,35.6,71,30.10,10.0,South,15.0,-,N/A,,Clear,170,2013-02-18 11:35:00
5:55 AM,42.8,35.6,76,30.10,10.0,SSE,11.5,-,N/A,,Clear,160,2013-02-18 11:55:00
6:15 AM,42.8,35.6,76,30.10,10.0,SSE,13.8,-,N/A,,Scattered Clouds,160,2013-02-18 12:15:00
6:35 AM,44.6,37.4,76,30.09,10.0,SSE,15.0,-,N/A,,Mostly Cloudy,160,2013-02-18 12:35:00
6:55 AM,44.6,37.4,76,30.09,10.0,South,13.8,-,N/A,,Mostly Cloudy,170,2013-02-18 12:55:00
7:15 AM,44.6,37.4,76,30.09,10.0,South,16.1,-,N/A,,Mostly Cloudy,170,2013-02-18 13:15:00
7:35 AM,46.4,37.4,71,30.09,10.0,South,17.3,-,N/A,,Mostly Cloudy,170,2013-02-18 13:35:00
8:15 AM,48.2,37.4,66,30.09,10.0,South,20.7,26.5,N/A,,Scattered Clouds,170,2013-02-18 14:15:00
8:35 AM,50.0,39.2,66,30.08,10.0,South,23.0,29.9,N/A,,Scattered Clouds,170,2013-02-18 14:35:00
8:55 AM,50.0,41.0,71,30.08,10.0,South,23.0,26.5,N/A,,Scattered Clouds,170,2013-02-18 14:55:00
9:15 AM,51.8,41.0,67,30.08,10.0,South,19.6,27.6,N/A,,Scattered Clouds,170,2013-02-18 15:15:00
9:35 AM,51.8,41.0,67,30.07,10.0,South,21.9,32.2,N/A,,Scattered Clouds,170,2013-02-18 15:35:00
9:55 AM,53.6,42.8,67,30.06,10.0,South,20.7,34.5,N/A,,Scattered Clouds,170,2013-02-18 15:55:00
10:15 AM,51.8,42.8,71,30.06,10.0,South,23.0,27.6,N/A,,Mostly Cloudy,180,2013-02-18 16:15:00
10:35 AM,51.8,44.6,76,30.05,7.0,South,20.7,28.8,N/A,Rain,Light Rain,170,2013-02-18 16:35:00
10:55 AM,51.8,44.6,76,30.04,10.0,South,23.0,29.9,N/A,,Mostly Cloudy,170,2013-02-18 16:55:00
11:15 AM,53.6,44.6,72,30.03,10.0,South,21.9,31.1,N/A,,Overcast,170,2013-02-18 17:15:00
11:35 AM,55.4,44.6,67,30.01,10.0,South,25.3,33.4,N/A,,Mostly Cloudy,170,2013-02-18 17:35:00
11:55 AM,55.4,44.6,67,30.00,10.0,South,25.3,32.2,N/A,,Mostly Cloudy,170,2013-02-18 17:55:00
12:15 PM,53.6,46.4,77,29.99,7.0,South,25.3,38.0,N/A,Rain,Light Rain,180,2013-02-18 18:15:00
12:35 PM,53.6,46.4,77,29.97,5.0,South,23.0,32.2,0.02,Rain,Light Rain,170,2013-02-18 18:35:00
12:55 PM,51.8,46.4,82,29.95,10.0,SSE,18.4,25.3,0.03,Rain,Light Rain,150,2013-02-18 18:55:00
1:15 PM,53.6,46.4,77,29.93,10.0,SSE,23.0,29.9,N/A,,Overcast,160,2013-02-18 19:15:00
1:35 PM,55.4,46.4,72,29.92,10.0,South,26.5,33.4,N/A,,Overcast,170,2013-02-18 19:35:00
1:55 PM,55.4,46.4,72,29.89,10.0,SSE,25.3,34.5,N/A,,Mostly Cloudy,160,2013-02-18 19:55:00
2:15 PM,55.4,46.4,72,29.89,10.0,SSE,24.2,31.1,N/A,,Scattered Clouds,160,2013-02-18 20:15:00
2:35 PM,59.0,46.4,63,29.88,10.0,South,24.2,32.2,N/A,,Scattered Clouds,170,2013-02-18 20:35:00
2:55 PM,59.0,48.2,67,29.86,10.0,South,25.3,34.5,N/A,,Mostly Cloudy,170,2013-02-18 20:55:00
3:15 PM,57.2,46.4,67,29.86,10.0,SSE,24.2,33.4,N/A,,Mostly Cloudy,160,2013-02-18 21:15:00
3:35 PM,55.4,48.2,77,29.85,10.0,South,23.0,32.2,N/A,Rain,Light Rain,170,2013-02-18 21:35:00
3:55 PM,57.2,50.0,77,29.83,10.0,SSE,23.0,29.9,N/A,,Overcast,160,2013-02-18 21:55:00
4:15 PM,55.4,50.0,82,29.82,10.0,SSE,17.3,23.0,N/A,,Overcast,150,2013-02-18 22:15:00
4:35 PM,55.4,50.0,82,29.80,10.0,SSE,19.6,24.2,N/A,Thunderstorm,Overcast,160,2013-02-18 22:35:00
4:55 PM,55.4,50.0,82,29.79,10.0,SSE,19.6,24.2,N/A,Rain-Thunderstorm,Light Thunderstorms and Rain,160,2013-02-18 22:55:00
5:15 PM,55.4,51.8,88,29.80,4.0,South,20.7,27.6,0.05,Rain-Thunderstorm,Thunderstorms and Rain,170,2013-02-18 23:15:00
5:35 PM,55.4,51.8,88,29.79,5.0,South,15.0,-,0.12,Rain,Light Rain,170,2013-02-18 23:35:00
5:55 PM,55.4,51.8,88,29.79,7.0,SSE,21.9,31.1,0.13,Rain,Rain,160,2013-02-18 23:55:00
6:15 PM,55.4,51.8,88,29.81,4.0,SSW,16.1,25.3,0.05,Rain-Thunderstorm,Heavy Thunderstorms and Rain,200,2013-02-19 00:15:00
6:35 PM,55.4,51.8,88,29.83,4.0,SSW,18.4,28.8,0.18,Rain,Heavy Rain,210,2013-02-19 00:35:00
6:55 PM,55.4,51.8,88,29.82,7.0,South,20.7,28.8,0.26,Rain,Rain,190,2013-02-19 00:55:00
7:15 PM,55.4,51.8,88,29.81,10.0,South,24.2,36.8,N/A,Thunderstorm,Overcast,180,2013-02-19 01:15:00
7:35 PM,55.4,51.8,88,29.82,7.0,South,21.9,31.1,0.01,Rain-Thunderstorm,Light Thunderstorms and Rain,190,2013-02-19 01:35:00
7:55 PM,53.6,51.8,94,29.84,7.0,South,16.1,25.3,0.03,Rain-Thunderstorm,Thunderstorms and Rain,190,2013-02-19 01:55:00
8:15 PM,53.6,51.8,94,29.87,2.5,SW,18.4,25.3,0.13,Rain-Thunderstorm,Rain,220,2013-02-19 02:15:00
8:35 PM,53.6,51.8,94,29.88,5.0,SSW,16.1,-,0.17,Rain-Thunderstorm,Rain,210,2013-02-19 02:35:00
8:55 PM,53.6,50.0,88,29.88,5.0,SSW,15.0,-,0.22,Rain-Thunderstorm,Thunderstorms and Rain,200,2013-02-19 02:55:00
9:15 PM,51.8,50.0,94,29.87,10.0,SSW,8.1,-,0.01,Rain-Thunderstorm,Light Thunderstorms and Rain,200,2013-02-19 03:15:00
9:55 PM,53.6,50.0,88,29.90,10.0,SW,13.8,-,0.01,,Mostly Cloudy,230,2013-02-19 03:55:00
10:15 PM,53.6,51.8,94,29.91,10.0,SW,13.8,-,N/A,,Overcast,220,2013-02-19 04:15:00
10:35 PM,53.6,51.8,94,29.93,10.0,WSW,9.2,-,N/A,,Overcast,250,2013-02-19 04:35:00
10:55 PM,53.6,51.8,94,29.94,10.0,WNW,18.4,-,N/A,,Overcast,300,2013-02-19 04:55:00
11:15 PM,50.0,44.6,82,29.96,10.0,NW,20.7,28.8,N/A,,Overcast,320,2013-02-19 05:15:00
11:35 PM,48.2,42.8,82,29.98,10.0,NNW,16.1,-,N/A,,Scattered Clouds,330,2013-02-19 05:35:00
11:55 PM,46.4,41.0,81,29.99,10.0,NW,16.1,23.0,N/A,,Clear,310,2013-02-19 05:55:00